{"data":{"norad_id":51735,"epoch":"2026-09-20T04:15:23.484960Z","epoch_age_seconds":80056,"freshness":"FRESH","line1":"1 51735U 22016X   26263.17735515  .00007420  00000+0  23077-3 0  9999","line2":"2 51735  53.1582 151.0309 0001135  91.8913 268.2219 15.34365041253133","mean_motion":15.34365041,"eccentricity":0.0001135,"inclination_deg":53.1582,"raan_deg":151.0309,"arg_perigee_deg":91.8913,"mean_anomaly_deg":268.2219,"bstar":0.00023077,"rev_number":25313,"period_min":93.849896310301,"perigee_km":462.03070053443,"apogee_km":463.58359485596,"semimajor_km":6840.9441476952,"source":"CELESTRAK","updated_at":"2026-09-20T09:00:39.930148Z"}}